Theta_e
311 314 315 317 314 319 326 324 325 325 323 324 326 328 329 328 328 328 327 327 326 325 327 330 331 331 332 332 329 322 316 317 322 323 321 319 318 319 320 320 320 321 321 322 323 323 324 325 325 326 327 327 325 321 320 320 319 320 323 322 320 320 320 320 320 319 318 317 316 313 316 321 320 318 318 318 319 319 319 320 321 321 321 320 320 320 325 329
310 313 314 316 314 316 325 325 324 325 323 323 324 327 328 329 328 328 327 326 326 325 327 331 331 331 331 330 325 319 317 319 322 323 321 320 320 320 322 322 322 322 322 323 324 324 325 326 327 328 329 327 324 320 319 319 318 321 324 324 323 321 319 319 318 317 317 316 316 314 314 318 320 318 318 318 319 319 320 321 320 321 322 321 321 320 323 327
309 312 313 315 314 314 320 324 325 325 324 324 326 327 328 329 328 327 327 326 325 325 327 330 331 331 331 327 321 317 317 318 320 321 320 321 321 322 323 323 323 323 323 324 324 325 326 327 328 329 328 327 323 319 317 317 318 319 321 325 325 321 319 317 317 316 315 315 315 315 313 315 317 317 317 319 320 319 320 321 321 321 322 321 321 321 321 325
309 310 312 314 314 313 315 320 325 325 324 325 327 329 329 329 328 327 326 326 325 325 327 330 330 331 329 323 318 317 317 318 319 320 320 322 322 322 323 322 323 323 323 323 325 325 325 327 328 328 328 329 324 319 318 316 317 318 319 324 322 319 319 316 316 315 313 314 314 313 313 314 315 315 317 318 319 320 320 321 321 320 321 320 320 321 320 323
309 309 311 312 313 313 312 315 322 325 325 324 324 326 328 328 328 327 326 325 325 325 327 329 330 330 326 319 315 316 316 318 319 320 321 322 322 322 322 322 322 323 323 323 324 325 326 326 328 327 328 329 325 322 320 316 316 317 316 317 317 317 317 315 314 314 313 313 313 313 314 315 314 314 316 318 319 320 320 319 319 319 319 319 319 320 320 320
310 309 310 311 311 311 311 312 317 323 326 325 325 324 326 328 328 327 325 325 325 326 328 329 330 329 323 317 315 316 317 321 322 321 322 319 319 321 322 323 323 324 324 324 325 325 325 325 327 327 328 329 327 325 320 314 315 318 315 313 314 315 315 313 312 312 312 312 313 314 314 314 314 315 315 316 318 319 318 318 318 318 318 318 318 319 320 319
311 310 309 310 310 311 311 311 314 320 325 326 326 326 327 328 328 327 326 326 326 327 328 329 330 326 321 317 316 317 319 323 322 323 324 321 320 321 323 324 323 324 325 325 325 325 324 325 326 326 327 328 328 328 321 315 316 318 316 313 313 313 314 314 312 312 312 312 313 312 312 313 315 315 314 314 317 317 317 317 317 318 317 318 318 319 319 319
313 310 309 309 310 310 311 311 312 317 323 326 325 326 327 328 328 327 326 327 327 328 327 329 329 324 319 316 317 319 320 322 322 323 325 323 320 320 323 325 324 324 324 324 325 325 324 324 325 325 327 327 327 329 322 317 317 317 316 314 313 313 314 314 314 313 313 312 312 312 312 314 314 313 313 314 316 316 316 317 316 317 317 317 317 318 318 319
312 310 311 310 309 310 311 312 312 313 319 325 325 326 326 326 328 327 326 327 328 328 328 329 328 323 318 316 318 321 320 321 322 323 323 322 319 319 322 324 324 324 323 324 325 325 324 324 324 324 326 325 326 327 323 322 322 320 317 315 315 315 315 315 315 315 315 313 312 313 313 314 312 312 314 316 316 316 315 316 316 317 317 317 317 317 317 318
310 311 313 312 310 310 310 311 312 312 315 322 326 328 328 326 327 327 327 327 328 328 328 329 328 322 317 317 320 321 320 321 322 322 323 322 320 319 320 321 322 322 322 322 324 325 324 324 324 324 324 324 324 324 323 325 324 322 319 316 317 316 316 316 315 316 316 314 312 313 315 313 311 312 316 316 315 315 316 315 316 316 316 317 317 317 317 317
312 314 315 313 311 310 311 311 312 312 314 320 325 328 329 328 328 328 327 327 328 329 328 328 325 319 316 318 320 321 321 322 321 322 322 321 320 318 319 319 320 320 320 320 321 323 324 324 324 324 324 323 322 320 321 323 321 320 320 318 318 318 318 317 317 317 317 317 313 312 314 313 310 312 315 317 315 315 316 315 315 316 316 317 317 317 317 317
313 314 313 312 311 310 311 311 312 312 313 318 323 325 328 328 328 328 327 326 328 328 328 327 322 316 317 320 321 321 323 322 321 322 322 321 320 319 320 320 320 320 320 320 320 323 324 324 323 325 324 323 321 319 320 320 317 317 319 321 319 317 320 320 320 318 317 318 314 312 315 315 312 312 315 315 315 314 315 315 315 316 316 316 317 316 317 317
312 313 311 310 311 311 311 311 312 312 314 318 321 323 326 328 328 327 326 326 328 328 328 327 320 316 319 321 321 322 323 322 321 321 322 322 321 321 321 321 321 320 320 320 321 323 323 322 323 323 322 322 320 319 319 315 314 316 317 320 321 321 322 320 318 316 316 318 314 314 319 320 315 313 315 315 314 314 314 315 315 315 315 316 316 316 316 317
309 311 311 310 310 310 311 311 311 312 314 317 318 320 324 327 328 327 325 326 327 327 328 325 319 317 320 322 321 322 322 322 321 321 321 322 321 321 321 321 321 320 320 321 323 323 321 321 322 322 321 321 318 317 316 314 315 318 317 320 322 326 325 317 315 315 318 318 313 316 321 322 318 315 315 314 313 313 314 315 315 315 315 315 315 315 316 316
307 309 309 309 309 309 310 310 311 312 313 314 315 318 322 325 327 326 325 326 327 326 326 322 318 319 321 322 321 321 322 322 321 321 321 322 322 321 321 321 321 321 322 323 324 321 318 321 321 320 319 318 317 317 316 316 316 317 321 324 322 324 325 317 314 316 319 316 310 316 322 320 318 317 315 314 314 313 314 315 315 314 314 315 315 315 315 315
307 306 307 307 307 308 308 309 311 311 312 312 312 316 320 324 326 326 325 326 327 325 322 319 318 319 322 323 321 320 322 322 321 321 320 321 322 320 321 322 322 324 324 323 322 319 318 320 319 318 317 316 318 319 318 319 318 317 322 326 322 322 325 321 315 313 316 315 311 315 320 318 315 314 314 313 313 312 313 315 315 314 314 314 314 314 315 315
306 305 305 306 306 306 307 309 309 310 311 311 311 315 319 323 325 325 325 325 325 322 319 319 319 320 322 322 322 321 322 322 322 321 320 321 322 322 323 324 324 325 324 322 321 320 319 319 317 317 317 317 318 320 323 325 324 320 320 323 320 319 321 322 319 313 312 315 314 314 317 319 317 314 313 312 313 312 312 314 314 314 314 314 314 314 315 314
306 305 305 305 305 306 308 309 309 309 310 310 311 313 316 322 325 324 325 323 322 320 319 319 320 322 323 321 322 322 321 322 322 320 320 322 322 323 325 325 325 324 321 319 319 318 317 316 316 318 318 319 319 321 327 328 327 324 322 323 320 317 318 321 320 314 311 313 315 315 315 318 318 315 315 313 312 312 313 314 314 313 313 313 313 313 314 314
306 305 305 305 306 307 308 308 308 309 310 310 311 311 314 321 324 324 324 322 321 321 321 321 321 323 324 321 322 322 321 322 322 321 322 322 323 325 326 325 323 321 318 316 315 315 316 315 316 320 320 320 319 323 326 324 325 324 322 323 322 319 318 319 317 312 311 313 314 316 316 316 316 315 316 315 312 312 313 313 313 313 313 314 314 313 314 314
306 306 305 305 306 307 307 307 307 308 309 310 310 310 314 318 322 322 323 322 320 321 321 322 321 321 322 321 322 322 321 322 323 323 323 323 324 324 322 320 317 317 316 316 315 314 316 317 319 321 321 320 320 322 321 319 321 322 321 321 322 322 320 317 314 311 310 313 315 315 315 316 315 315 316 316 313 311 312 313 313 313 313 314 315 314 314 314
307 306 306 306 306 305 306 306 307 308 308 310 310 311 313 316 318 318 319 322 321 321 321 321 321 320 321 322 322 322 322 322 322 323 324 323 322 321 317 315 315 315 317 316 315 314 316 319 321 321 321 320 319 319 317 317 319 320 320 321 321 322 321 316 313 311 309 312 315 313 312 314 314 314 315 315 313 311 312 312 314 314 314 314 314 315 315 315
308 307 307 306 306 305 305 305 306 307 308 309 310 311 313 315 316 315 317 321 321 320 322 321 321 320 321 322 322 322 322 321 321 322 323 320 319 319 315 314 315 315 314 314 314 315 317 321 320 319 318 317 316 316 317 317 318 319 320 321 322 320 319 317 313 310 309 312 316 312 311 314 313 313 313 314 313 312 312 312 313 314 314 314 314 314 315 315
308 308 307 306 306 304 304 304 305 307 308 309 311 312 313 314 315 315 316 321 321 320 321 321 320 320 321 322 322 322 322 322 321 320 322 319 317 318 316 315 316 314 313 314 315 317 319 320 318 316 316 315 314 315 317 317 317 319 320 321 322 319 319 321 315 310 309 310 312 311 312 315 315 314 313 314 313 313 313 313 313 313 313 314 314 314 315 315
308 308 308 307 305 303 303 303 303 306 307 309 311 311 313 314 314 315 314 316 319 319 321 321 319 321 321 322 323 323 322 323 321 319 320 320 317 317 316 316 316 314 314 315 316 318 318 316 315 314 315 315 314 315 316 318 318 318 318 321 322 318 317 319 313 310 310 309 310 312 316 319 319 318 317 316 314 312 312 312 313 313 313 313 313 314 315 315
307 307 307 307 306 304 304 303 302 304 306 308 310 310 312 313 313 314 312 313 316 317 320 320 319 321 321 322 323 322 322 322 321 320 319 319 318 317 317 317 317 315 315 315 316 318 316 312 313 313 314 315 315 315 316 319 319 317 317 319 320 317 315 314 312 312 315 316 312 312 321 323 318 317 317 317 314 312 312 311 311 313 313 313 313 313 314 315
306 306 307 307 306 305 304 303 302 303 305 308 311 311 310 311 312 312 312 314 317 317 319 320 320 321 321 322 322 322 323 322 320 320 318 318 319 318 318 317 316 316 316 315 316 317 313 310 313 313 314 316 316 315 316 318 319 319 317 315 316 315 314 314 314 316 319 319 312 310 319 323 317 316 316 315 314 313 313 312 312 312 312 313 313 313 314 315
304 305 306 306 306 305 305 304 302 303 304 306 309 310 310 310 310 311 311 315 318 317 318 319 320 321 320 321 322 322 324 322 320 319 317 318 319 318 319 317 316 316 315 316 318 316 311 310 313 314 315 316 316 316 316 316 319 319 315 313 313 313 314 314 315 317 317 315 312 310 314 316 316 317 316 315 315 315 314 314 314 313 313 313 313 313 314 314
304 304 305 306 306 306 305 304 303 303 304 305 307 308 309 309 309 309 312 318 319 316 317 318 318 319 320 321 321 321 322 321 320 318 317 318 319 318 319 317 316 316 314 317 320 315 310 311 313 314 315 316 317 317 315 315 318 317 312 312 313 313 315 314 314 315 313 313 316 314 312 315 318 316 313 312 314 315 315 315 316 315 314 314 314 314 314 314
304 304 303 304 306 306 306 305 304 303 303 304 306 307 307 308 308 309 312 317 317 315 316 317 317 318 319 320 320 318 320 320 319 317 317 318 318 317 319 317 316 315 314 315 318 313 310 312 313 314 316 316 315 315 314 315 316 313 311 312 313 313 313 313 313 314 312 314 318 316 313 317 320 318 315 313 312 315 316 316 317 317 316 315 315 315 314 314
304 304 303 304 305 306 306 306 304 303 303 303 305 307 307 307 309 311 314 316 316 315 316 317 317 318 319 320 318 318 319 318 316 316 316 317 317 316 317 317 316 316 315 314 313 310 308 310 312 314 314 313 312 311 312 314 313 312 312 312 313 312 312 312 312 312 314 317 318 316 314 316 319 319 318 316 314 313 315 315 316 316 316 315 315 316 315 314
304 304 303 303 304 305 305 306 305 303 303 303 305 307 307 307 309 313 315 315 315 315 316 317 318 319 320 320 319 320 319 316 315 315 315 317 317 316 316 316 316 316 316 315 311 309 308 310 311 311 310 311 311 310 310 311 311 312 313 314 315 314 313 315 314 313 317 320 315 312 311 313 317 318 316 315 313 311 312 313 314 316 316 315 315 315 314 313
303 304 303 303 304 305 305 305 305 304 303 303 305 306 307 309 311 313 315 315 315 314 315 318 319 320 320 320 320 320 318 316 316 316 316 318 318 318 318 317 315 316 318 318 313 310 310 310 310 309 308 310 313 312 310 309 311 313 313 315 318 318 318 321 319 316 319 318 311 308 310 312 315 316 314 314 312 312 312 312 313 314 315 314 313 312 313 312
303 303 304 304 304 304 305 305 305 305 303 303 305 306 308 311 312 313 314 315 315 314 314 316 319 320 320 321 321 319 318 317 316 317 317 318 318 319 320 317 315 318 321 319 314 312 312 311 309 309 309 310 313 313 312 311 311 312 314 317 320 320 322 324 321 317 319 316 309 307 310 313 315 315 314 314 315 315 314 313 313 313 313 313 312 312 313 314
302 302 303 304 304 304 304 305 305 305 304 303 305 306 308 312 313 313 313 312 313 314 314 316 319 320 320 321 320 319 319 318 316 317 318 318 319 320 320 318 315 318 321 318 315 315 317 315 311 311 310 310 312 314 314 313 312 312 314 316 317 318 322 324 321 319 319 314 309 308 312 317 317 315 312 312 314 314 313 312 311 312 312 312 312 313 313 313
301 301 302 303 304 304 304 305 305 305 304 303 305 307 309 313 313 312 312 311 312 313 313 315 319 320 321 321 320 319 318 318 318 318 317 317 320 321 320 318 317 317 319 320 318 318 321 317 311 310 309 310 313 313 312 313 313 311 311 313 315 315 316 315 314 314 313 312 311 310 313 316 315 313 312 312 312 311 311 310 309 310 312 311 311 312 313 313
300 300 300 300 301 303 304 305 305 305 304 303 305 307 308 311 311 311 312 311 311 313 313 316 319 320 321 320 320 319 317 317 319 318 317 317 319 320 320 318 317 317 319 320 319 320 323 317 309 308 308 308 311 311 312 314 314 311 310 312 313 312 311 311 310 308 309 314 315 312 312 314 313 314 313 313 313 312 311 312 310 311 311 311 311 312 313 313
299 299 299 299 299 301 303 304 305 305 304 304 306 307 307 309 308 309 312 312 312 313 314 316 318 318 319 319 319 320 318 318 319 318 318 318 319 319 319 318 317 317 318 320 319 319 320 314 308 310 310 307 308 310 310 310 311 312 312 312 311 310 311 311 312 310 310 315 315 311 313 314 314 316 314 311 312 313 312 313 312 311 310 310 312 313 313 312
298 299 299 299 299 299 301 303 304 304 304 305 306 306 307 307 307 309 311 312 313 313 314 316 316 315 316 318 319 319 319 320 319 319 319 319 320 319 318 318 318 317 318 319 318 318 317 314 309 309 310 307 306 309 311 308 308 311 312 313 313 313 313 312 312 313 313 315 315 312 310 311 313 315 314 312 312 312 312 313 313 312 311 311 312 313 312 312
299 299 299 300 300 299 299 301 303 304 305 305 305 306 306 307 307 308 310 311 313 314 314 315 314 313 314 317 318 319 320 321 320 320 319 319 320 318 317 318 318 317 317 316 317 317 316 316 312 308 308 308 307 310 312 310 308 308 311 312 311 312 314 313 312 313 315 315 315 313 311 312 314 313 313 315 313 312 314 314 314 314 313 312 312 312 312 311
299 300 300 299 300 300 300 301 303 303 304 305 305 306 307 306 306 307 308 310 312 314 314 314 313 313 313 314 315 318 320 321 320 320 320 319 319 317 317 317 317 317 315 312 315 316 314 315 314 309 308 309 309 310 313 313 310 309 311 312 310 310 311 312 312 311 313 314 313 314 314 315 315 312 312 315 314 313 315 315 316 316 313 311 311 311 311 311
299 299 300 299 299 300 300 301 302 303 304 305 306 306 306 306 306 307 308 309 311 312 313 313 313 313 313 313 314 317 320 321 319 321 321 319 318 318 317 317 317 317 314 312 315 316 314 314 314 309 309 310 310 310 311 312 311 311 312 312 312 311 311 314 314 310 309 312 311 312 314 316 315 312 311 313 314 315 315 315 316 314 310 310 310 310 311 311
298 299 299 299 298 299 300 301 302 303 304 305 305 306 306 307 307 307 307 308 310 311 312 313 313 312 311 313 314 315 319 320 319 320 321 319 318 318 317 317 317 315 314 314 315 313 312 313 312 310 310 311 310 307 306 309 313 313 312 312 313 312 312 315 316 311 308 309 309 309 312 315 314 310 310 312 313 313 312 312 313 312 309 310 310 310 311 311
299 299 299 299 298 299 301 302 302 303 303 304 305 305 306 307 307 306 307 308 309 310 310 311 313 312 311 312 313 314 317 319 320 320 320 320 318 316 316 317 316 315 313 314 315 312 312 313 312 310 310 310 309 307 306 308 311 312 312 312 312 313 313 312 311 311 311 311 310 310 313 315 313 310 310 311 311 308 307 307 309 310 310 310 310 310 311 311
299 299 299 299 299 299 301 302 301 302 303 303 304 305 305 306 307 307 307 307 308 309 309 310 312 313 313 313 312 314 316 318 320 320 319 320 317 314 315 317 316 315 314 315 315 315 315 315 313 312 312 312 311 310 310 310 309 310 311 311 311 313 313 309 308 309 312 313 312 313 315 314 312 311 310 308 308 307 306 307 307 308 309 310 310 310 311 311
299 299 299 300 300 300 301 302 301 301 302 303 303 304 305 306 306 307 307 307 307 309 309 310 311 313 314 313 312 313 315 318 319 318 318 318 313 311 315 317 315 315 314 314 314 315 316 315 314 314 314 315 315 314 314 312 309 309 310 310 311 312 312 311 311 311 312 314 313 314 316 313 310 311 311 309 309 308 308 308 307 308 310 309 309 310 311 311
298 299 299 300 300 300 301 302 301 301 302 302 303 304 305 306 306 306 307 308 308 308 309 311 312 312 313 314 313 313 314 316 317 317 317 316 312 310 314 315 315 315 314 313 313 315 316 315 315 317 317 317 318 317 316 314 311 310 311 310 311 312 312 313 313 312 313 314 313 315 315 313 311 310 311 311 310 309 310 309 308 309 310 310 310 310 311 311
298 298 299 299 300 300 301 301 301 301 302 302 302 303 304 305 306 306 307 308 308 308 309 310 311 312 313 313 313 313 313 313 315 316 317 315 312 311 312 314 315 315 314 313 313 314 316 315 315 318 319 318 319 319 317 314 312 311 311 311 311 312 312 314 314 314 314 314 314 315 315 315 313 311 312 314 312 311 311 310 308 309 310 310 310 310 311 311
298 299 299 300 300 300 301 301 301 301 302 302 302 303 304 305 306 306 307 307 308 309 309 309 310 311 312 313 313 313 313 313 313 314 315 313 311 311 311 312 314 314 313 313 313 313 315 316 315 316 318 317 315 316 316 314 313 312 312 311 311 311 312 314 314 314 315 314 315 317 317 315 314 311 312 314 313 311 311 311 309 310 310 310 310 310 311 311
298 299 299 300 300 300 301 301 301 301 302 302 302 303 304 304 305 306 307 307 307 308 309 310 309 310 310 312 313 314 314 315 314 314 313 312 312 312 311 311 311 310 311 313 313 312 314 317 315 314 316 314 311 312 315 315 315 313 312 312 311 311 312 313 314 314 314 314 315 317 317 316 314 312 312 312 312 311 310 309 309 310 310 310 310 311 311 311
297 298 299 300 300 301 301 301 301 301 301 302 302 303 303 304 305 305 307 307 307 308 309 310 310 310 310 310 312 313 314 315 315 315 313 312 313 313 312 312 311 310 310 312 312 312 314 317 316 314 315 313 309 310 313 314 314 314 313 312 311 311 312 313 313 314 314 314 314 315 316 315 314 312 312 312 310 309 308 308 309 310 310 310 310 311 311 312
297 298 299 300 300 300 301 301 301 301 301 301 302 303 303 304 305 305 306 307 308 308 309 309 309 310 310 310 311 312 313 315 315 315 314 313 314 314 313 313 312 311 311 312 312 312 313 315 314 314 316 313 309 308 310 311 313 313 312 312 312 311 312 312 312 313 313 314 314 314 314 314 313 313 313 311 309 307 308 309 309 310 311 311 311 311 312 312
297 297 298 298 299 300 300 301 301 301 301 301 302 302 303 303 304 305 305 306 307 307 308 309 309 309 310 311 311 311 312 314 315 315 314 313 313 313 313 313 312 312 311 312 312 312 312 313 312 314 317 314 308 308 311 312 313 313 312 312 312 312 312 312 312 312 313 313 314 314 314 313 313 312 312 311 311 310 310 310 310 311 311 311 311 311 311 312
Wind_Speed
37 40 43 47 36 27 43 46 43 45 45 46 45 44 43 43 45 45 42 40 38 36 35 34 33 32 30 29 30 33 37 37 34 32 34 35 32 29 25 22 20 18 15 13 12 11 10 11 12 12 11 10 6 4 5 5 6 4 3 3 3 3 3 3 3 2 1 3 4 4 7 9 5 8 9 6 8 7 8 12 11 11 12 9 6 5 13 22
37 42 44 52 44 27 37 45 41 43 44 46 46 45 45 44 45 45 43 41 39 37 36 36 34 32 30 29 30 33 36 37 35 32 35 35 32 29 26 24 21 18 15 11 11 10 8 9 9 11 10 8 7 8 6 6 6 3 2 4 4 3 2 1 2 2 0 2 3 2 5 8 5 6 9 7 7 8 8 10 12 12 14 15 12 7 12 21
34 42 45 51 48 30 27 38 42 43 44 46 48 48 47 45 45 45 43 42 40 38 38 37 35 33 31 30 30 32 35 34 31 36 40 37 31 29 25 24 21 17 14 11 10 9 8 7 7 10 12 9 8 10 7 6 6 2 3 6 4 3 2 2 3 3 1 2 1 1 4 7 5 6 8 7 5 8 11 10 11 14 17 18 17 12 12 21
30 38 45 49 47 36 26 26 37 45 45 46 49 48 47 44 44 44 43 42 41 39 39 38 36 34 32 32 31 32 33 24 27 42 45 39 33 29 25 22 20 18 15 13 11 9 9 10 9 11 13 8 7 9 7 7 6 3 3 4 2 4 3 3 3 3 1 2 1 0 3 4 5 8 9 6 6 8 13 14 13 16 18 18 18 16 14 19
27 33 43 46 44 41 34 25 29 43 46 45 48 47 45 44 44 44 44 43 41 40 40 39 37 35 33 33 33 34 29 11 20 43 43 39 37 30 27 25 22 20 17 15 14 12 9 11 13 13 11 6 6 8 6 7 7 4 1 1 4 4 3 3 2 2 2 1 2 2 1 1 4 9 10 10 9 5 5 10 13 15 16 16 16 18 16 18
27 30 37 41 41 40 35 27 24 36 45 45 46 47 45 45 45 44 45 43 41 42 41 39 38 36 35 35 34 35 28 6 9 35 39 37 37 32 31 29 25 24 22 17 16 16 13 13 14 12 8 6 9 8 5 7 7 4 1 1 3 4 3 4 1 1 2 2 2 2 2 2 4 6 10 15 15 8 4 5 7 10 13 15 15 18 18 18
24 28 33 36 39 39 37 31 22 27 41 44 44 47 48 47 47 45 45 44 42 43 42 41 39 37 36 36 34 32 29 10 3 23 34 34 33 29 27 25 23 24 24 20 19 19 17 17 13 11 9 5 8 8 7 8 5 4 3 5 5 5 5 4 3 3 2 4 4 3 3 4 5 4 7 14 18 16 14 9 5 6 8 13 16 19 20 19
23 23 27 32 37 38 38 35 26 23 33 43 45 47 50 49 48 46 46 44 43 44 43 42 39 39 39 37 35 28 27 18 3 14 30 32 29 27 25 25 23 21 23 22 21 21 18 18 14 13 9 3 7 9 8 8 3 5 5 6 6 5 4 2 3 4 4 3 4 4 5 5 7 5 5 13 16 16 17 15 12 8 6 10 15 18 20 21
22 20 21 26 34 37 37 34 29 25 24 37 46 46 48 50 49 47 47 45 44 45 44 44 41 41 39 38 34 22 28 26 6 13 30 32 30 29 30 29 26 23 24 22 21 21 19 19 17 12 6 4 9 9 10 9 5 6 6 7 6 5 3 1 1 2 5 4 4 4 5 4 6 6 8 13 13 11 14 17 17 15 11 10 11 15 19 21
22 23 22 21 27 33 37 35 30 27 22 27 43 48 49 54 52 48 48 46 45 46 45 45 42 41 40 39 31 15 28 32 10 13 31 35 33 33 33 31 29 27 25 25 22 21 19 19 18 12 5 7 9 7 9 8 2 7 9 6 5 3 3 3 3 4 6 5 3 4 4 2 3 4 5 6 4 5 10 15 18 19 18 15 12 13 16 19
25 28 27 24 24 26 34 36 30 27 22 20 35 48 51 54 54 50 48 47 47 47 47 46 43 43 42 40 29 14 28 34 14 14 27 36 37 35 36 33 30 30 27 27 24 23 19 16 18 13 5 7 8 5 7 5 3 6 9 6 5 5 7 8 7 9 8 5 3 3 5 3 4 4 7 8 6 4 7 12 16 18 19 18 17 15 16 18
26 28 25 22 23 22 27 33 30 26 22 19 26 40 48 50 51 51 49 48 48 48 48 47 44 44 43 35 26 19 30 36 21 15 20 33 39 35 35 32 30 30 28 26 24 23 19 16 19 13 5 9 10 5 6 5 4 5 6 5 3 3 9 11 9 9 7 5 2 1 6 7 6 8 13 15 11 5 7 11 14 17 18 19 19 18 18 18
23 25 25 24 24 23 25 29 30 25 21 19 19 29 42 50 53 52 51 49 49 50 51 50 45 45 40 28 25 26 31 36 28 17 16 27 37 35 33 30 28 27 24 24 24 23 21 18 18 13 8 10 7 5 6 7 6 6 4 3 3 3 7 7 6 6 6 6 4 3 7 8 6 11 16 15 11 8 9 12 13 15 17 18 18 19 19 20
21 23 26 25 24 24 25 27 29 26 22 18 15 18 31 49 56 53 52 50 50 51 51 51 46 43 35 21 25 31 29 34 34 23 16 22 33 34 31 29 26 24 22 23 24 24 22 19 17 13 10 9 8 9 8 6 4 5 3 2 4 5 4 3 4 7 7 6 9 7 8 8 4 6 11 12 12 11 11 12 15 16 16 17 17 18 19 20
21 22 24 24 24 24 25 26 26 27 24 21 16 12 20 43 56 55 53 51 51 52 51 51 46 42 29 15 26 34 25 27 34 30 19 19 31 34 30 29 25 23 23 23 25 25 23 19 15 11 9 10 12 11 6 5 3 4 4 4 5 6 3 4 4 9 7 4 11 10 6 7 8 8 9 11 12 13 13 12 14 17 17 17 18 18 19 20
21 21 23 24 24 24 25 27 26 26 26 26 22 13 14 32 52 56 53 52 53 51 49 48 46 41 24 11 24 34 25 23 30 33 25 20 29 34 31 29 27 26 25 23 24 24 21 17 13 11 11 10 10 8 5 4 3 4 6 5 5 7 4 3 5 6 6 2 9 12 7 3 4 5 6 6 7 10 13 12 13 18 19 19 19 19 20 20
22 20 22 23 22 21 22 25 27 27 27 26 23 16 12 23 46 56 53 52 51 51 51 48 47 37 17 11 23 32 31 26 27 32 29 23 28 33 33 31 29 27 25 21 19 20 19 15 13 10 8 7 7 7 6 6 5 5 6 4 3 6 4 4 3 4 5 5 9 12 10 9 7 5 6 5 6 7 10 11 13 16 19 21 21 21 21 21
23 22 22 22 20 20 21 23 26 26 26 24 19 17 11 19 41 52 52 53 49 46 42 40 42 23 10 20 28 35 38 29 28 32 30 26 28 33 33 32 30 27 24 18 15 18 16 12 9 6 6 7 7 8 7 6 7 7 7 5 3 5 6 7 4 4 7 7 9 10 11 14 12 11 12 11 10 10 11 11 12 14 16 19 20 21 22 22
26 23 21 22 20 20 20 22 25 24 25 24 18 15 10 20 41 47 51 55 47 35 24 34 43 15 11 33 35 38 41 31 30 32 31 31 31 33 31 29 30 27 22 15 12 16 14 8 6 7 8 10 10 12 9 3 5 8 8 6 5 6 7 7 4 3 4 5 9 12 12 13 12 13 16 15 13 13 14 13 15 18 18 19 19 20 20 21
27 24 22 22 21 19 19 21 23 23 23 24 19 14 10 16 25 26 41 56 51 41 32 49 53 12 10 36 35 38 40 30 32 34 33 35 35 33 29 27 26 19 15 12 10 13 13 8 7 9 10 13 15 14 6 4 3 6 7 6 6 7 6 6 5 3 2 4 8 10 10 13 12 12 15 15 12 11 13 14 16 18 20 23 23 22 21 20
28 28 24 20 19 19 17 19 21 20 20 20 18 14 10 9 7 4 22 43 44 36 29 47 46 7 13 39 39 44 41 27 31 36 33 35 37 31 25 24 19 9 9 13 11 11 11 8 9 11 10 13 13 9 5 5 5 7 7 7 7 8 5 4 4 3 2 4 6 4 6 12 11 10 13 14 10 10 13 15 16 17 18 22 24 25 24 22
25 28 25 20 19 17 14 17 20 19 17 17 17 15 12 11 7 4 11 24 30 24 23 43 39 12 22 40 41 49 41 21 24 34 35 37 35 25 20 18 13 7 8 11 10 8 8 9 10 10 7 9 8 7 7 6 6 6 6 6 6 6 3 2 3 2 2 4 3 1 5 11 11 10 13 15 13 13 17 20 20 20 17 18 23 26 27 26
23 25 26 23 18 14 13 14 17 19 16 16 17 15 13 12 9 7 7 15 19 19 30 44 33 23 32 35 41 50 40 24 24 33 40 40 32 25 21 14 9 9 9 9 9 9 7 8 11 10 8 10 9 9 10 7 6 6 6 6 5 6 5 4 4 4 2 2 3 2 6 10 11 11 12 16 18 17 22 25 24 25 22 21 24 26 27 28
24 24 25 25 20 14 14 11 13 18 15 14 16 15 14 11 12 11 6 8 6 12 33 41 30 33 38 35 44 47 36 30 31 36 44 43 33 27 23 17 12 9 9 12 12 10 5 5 13 13 10 13 11 11 12 7 6 6 7 9 6 7 7 1 3 5 1 2 2 4 8 9 10 13 13 14 15 16 19 22 23 26 27 25 26 27 26 27
24 23 22 24 22 17 16 11 10 18 17 14 15 17 16 12 13 15 8 5 2 7 24 31 25 29 36 38 42 39 30 26 30 40 45 40 35 26 19 19 15 9 14 17 13 9 4 7 16 14 10 14 12 10 13 9 6 6 9 12 9 8 7 2 4 4 4 5 2 1 7 6 3 9 12 8 7 10 12 13 18 25 27 26 27 27 26 26
22 22 22 23 23 22 19 13 10 16 20 16 12 14 18 16 17 16 8 4 2 5 13 22 22 25 33 36 40 35 23 15 24 42 42 33 35 29 17 13 8 10 18 14 7 4 4 8 14 14 13 14 12 10 12 12 7 5 6 9 7 6 7 6 6 5 4 3 1 0 6 5 3 7 10 7 7 10 10 9 13 20 25 25 25 26 26 26
19 22 22 21 22 23 19 16 14 15 20 20 12 13 16 16 20 16 6 1 5 6 9 15 18 25 30 36 44 29 11 16 23 35 38 30 32 29 17 11 6 11 17 10 4 2 7 12 11 13 14 11 11 10 11 13 9 3 4 8 8 7 8 7 5 5 3 2 1 2 3 5 7 7 5 8 11 13 13 12 10 14 22 26 24 23 26 27
18 21 23 21 20 21 18 17 18 16 18 21 17 17 16 15 19 14 3 1 5 7 8 9 13 25 31 39 42 19 15 30 21 20 37 32 26 22 15 13 11 13 16 10 7 3 7 13 13 15 13 9 11 9 11 15 7 1 4 7 7 6 6 5 3 3 1 2 5 4 4 4 7 4 1 3 10 13 14 14 13 14 20 26 24 22 23 26
18 20 23 23 20 21 19 16 17 13 14 20 19 17 17 17 17 10 0 3 4 4 5 10 13 22 30 31 24 14 23 26 11 17 34 28 21 14 8 15 17 15 11 4 4 3 3 10 15 16 11 8 7 5 10 14 4 3 6 8 7 5 5 3 1 1 0 4 7 6 8 6 7 5 4 3 5 11 12 12 14 15 18 24 26 22 21 23
18 19 22 23 20 20 19 16 16 11 11 19 18 16 20 19 13 6 4 3 3 2 5 11 13 19 27 20 9 14 19 11 14 27 24 18 19 12 10 17 15 13 7 2 5 3 3 7 11 8 5 6 7 6 4 7 7 10 9 8 7 4 3 2 0 1 3 6 6 6 10 7 5 4 5 5 4 6 8 8 11 13 16 22 25 23 21 21
16 17 19 22 21 19 19 20 20 15 14 19 18 20 22 13 4 3 5 2 3 3 5 9 13 18 23 17 8 15 14 8 20 25 12 11 14 9 14 14 8 7 7 3 4 3 5 8 7 2 3 9 11 6 4 5 9 9 7 7 7 4 2 2 1 1 5 5 1 0 4 7 8 4 3 5 4 5 7 7 9 12 15 19 22 21 17 14
15 15 16 20 21 20 20 21 23 23 19 20 24 24 15 5 2 4 4 4 2 4 4 6 14 18 20 17 12 14 12 10 19 19 12 13 10 9 12 10 9 9 7 8 6 4 5 4 1 2 7 11 10 8 4 4 6 6 6 8 6 4 3 4 4 3 6 4 2 3 1 6 10 7 6 9 9 10 11 10 11 12 14 15 16 14 12 11
15 15 15 18 19 20 20 18 24 29 24 24 28 19 5 2 5 3 3 4 2 3 3 5 14 20 21 17 12 13 11 10 17 17 14 14 12 10 4 6 14 8 5 11 8 6 4 2 2 4 5 9 11 10 7 6 8 9 10 10 6 5 5 6 5 3 5 2 2 1 0 4 8 6 10 15 15 15 13 13 16 18 20 20 18 16 16 16
15 14 14 16 16 19 21 17 22 31 30 27 21 9 4 6 4 2 3 3 1 4 5 6 13 20 21 15 13 15 10 8 16 16 14 13 11 10 3 8 17 7 5 10 5 7 8 2 7 8 6 11 13 9 9 10 9 8 7 5 3 3 4 5 4 3 2 1 2 2 1 5 3 2 3 9 11 14 14 14 17 20 23 24 22 20 19 17
16 15 14 15 15 17 20 17 19 29 32 23 10 3 6 7 3 3 4 3 1 5 6 7 13 18 17 11 14 15 5 7 18 14 11 14 13 13 11 11 18 12 9 10 4 7 10 4 2 2 5 14 13 6 9 12 8 3 1 2 2 1 1 1 0 1 1 1 2 4 3 5 3 5 7 8 9 12 14 14 15 18 20 20 20 19 17 16
16 15 13 13 14 15 18 17 17 25 29 16 3 3 4 2 1 3 4 4 4 6 9 10 12 14 12 8 12 14 2 5 17 12 8 13 12 15 15 10 14 14 11 11 5 5 9 4 1 3 4 9 9 9 9 10 7 4 3 5 2 2 2 2 1 2 1 3 3 4 5 5 3 7 11 11 11 11 12 12 13 16 19 19 19 20 18 16
17 16 13 13 14 14 18 18 18 26 26 12 2 3 1 1 1 1 2 5 4 5 9 10 7 6 7 6 10 15 9 7 14 10 7 10 9 13 14 10 14 17 14 12 5 3 7 4 1 2 5 3 5 11 8 3 3 5 7 7 4 2 2 1 2 2 2 5 2 3 7 6 3 4 3 5 10 12 12 12 10 11 15 17 19 19 16 13
17 16 15 15 14 13 16 17 17 23 20 8 6 6 0 0 3 2 1 3 5 4 5 6 2 0 4 6 9 16 16 12 11 9 9 9 7 12 15 12 17 22 17 11 5 3 7 6 2 1 3 3 3 7 6 2 2 2 4 8 5 2 4 4 3 3 4 4 3 3 5 6 6 7 3 4 8 10 10 9 7 8 11 16 20 18 14 12
17 14 12 14 15 13 14 16 17 17 10 5 8 7 2 2 4 4 3 3 4 5 5 3 1 1 3 5 9 15 17 16 14 12 10 8 5 14 19 12 13 22 17 7 5 6 6 4 3 0 1 4 3 5 8 7 2 1 3 7 2 2 3 4 2 1 2 3 3 1 1 4 7 8 8 9 11 11 10 8 7 7 9 15 18 15 11 10
16 9 5 12 15 13 13 15 14 10 4 4 6 4 2 2 3 5 5 2 1 2 4 3 2 2 2 3 5 10 13 15 16 12 9 9 6 10 18 13 10 19 15 3 3 8 4 2 6 4 1 4 6 5 8 11 8 5 7 8 5 2 0 1 2 1 1 3 3 2 4 5 3 5 9 14 14 11 9 9 6 4 5 9 11 9 8 10
15 5 3 11 14 15 17 13 8 5 2 3 4 2 2 2 3 5 7 6 2 1 1 2 3 3 3 3 3 6 8 11 14 10 7 11 8 5 17 20 14 17 14 5 6 8 3 3 8 7 5 6 4 1 1 5 9 9 8 9 9 6 4 4 5 2 0 2 2 1 6 6 2 5 8 10 11 9 9 9 5 4 6 8 8 8 9 9
14 3 5 13 16 20 20 10 4 4 2 3 5 4 4 3 3 5 7 7 5 1 3 1 2 3 2 3 3 5 5 7 12 11 6 12 12 6 16 24 20 18 14 6 4 3 2 4 7 6 5 3 2 3 3 2 3 4 5 7 9 8 7 6 4 3 3 1 1 1 4 5 0 3 6 7 7 6 6 7 6 8 11 10 8 9 8 7
12 6 9 14 18 24 19 6 4 5 2 3 5 6 5 3 2 5 7 6 5 3 1 2 2 4 3 3 3 5 6 6 12 14 9 11 11 6 17 27 24 18 11 5 6 5 3 5 6 6 3 2 3 2 2 3 1 4 7 7 8 9 7 2 1 2 5 4 3 2 5 4 1 1 2 5 5 4 4 6 6 9 11 9 7 8 7 8
13 12 12 12 18 25 16 4 6 8 6 5 4 6 8 6 4 5 6 7 7 5 4 4 3 5 4 4 4 6 6 4 9 13 9 7 7 9 24 34 26 17 13 9 10 9 5 5 7 7 5 2 1 2 2 3 5 7 6 5 7 7 7 4 1 1 3 7 8 5 7 4 1 2 2 5 4 3 5 7 8 10 10 8 7 7 9 13
14 11 11 15 24 26 15 6 8 8 8 9 7 8 9 6 7 10 9 9 9 6 5 5 5 4 3 5 5 7 7 4 4 8 4 3 2 6 24 36 28 20 18 12 12 10 5 5 8 9 9 9 9 8 7 7 6 4 5 8 9 11 11 6 3 3 6 7 10 10 7 2 3 1 5 6 4 4 8 10 13 15 13 9 7 10 13 16
11 6 6 11 20 23 16 11 10 6 7 9 6 8 10 6 7 13 12 8 8 9 6 3 5 3 3 7 7 5 9 4 1 4 4 5 1 1 20 36 31 26 23 17 21 14 3 5 10 9 11 11 7 4 3 7 9 7 8 12 11 12 13 8 4 6 8 5 8 16 10 1 1 6 7 6 6 7 7 7 13 18 16 12 11 14 16 17
8 4 6 8 10 13 12 10 9 6 7 10 6 6 12 10 6 8 11 9 9 12 8 4 5 5 5 9 7 5 10 5 0 4 6 6 2 1 15 28 28 31 26 18 23 15 2 6 14 13 15 9 1 3 8 12 12 11 12 13 12 13 14 11 11 15 9 5 9 15 10 8 8 10 9 9 7 7 6 8 14 17 16 15 16 17 18 17
8 4 11 15 8 6 9 11 12 11 11 12 8 6 12 14 10 8 10 10 9 10 8 6 9 10 9 10 8 6 9 6 2 5 5 4 4 4 9 13 14 23 22 13 15 11 3 9 13 11 11 3 4 4 11 14 15 15 16 17 16 17 18 17 19 21 13 10 13 7 10 15 15 13 13 10 7 9 10 12 15 15 15 17 18 19 20 19
9 3 10 18 10 6 13 17 17 15 14 12 8 6 10 14 15 11 8 7 8 10 10 7 10 15 15 13 10 8 11 9 5 6 5 6 8 8 8 6 6 13 15 9 8 8 5 8 12 12 8 2 5 2 7 11 13 15 18 20 19 19 20 20 22 24 19 17 16 4 4 13 14 12 13 13 14 14 12 12 12 11 14 18 20 22 22 21
13 8 8 12 9 9 15 18 15 12 13 12 9 8 10 13 16 14 9 8 8 8 11 13 14 15 16 16 14 13 13 14 12 11 11 10 10 9 9 10 9 13 14 9 7 9 8 8 12 13 7 1 2 1 1 5 10 14 17 16 16 18 19 20 23 20 16 17 19 11 9 15 10 11 13 18 18 12 10 12 12 11 14 17 21 24 24 24
20 18 12 7 6 9 12 12 11 11 12 11 10 10 11 14 18 14 10 15 15 10 13 19 18 14 14 17 20 19 18 18 17 18 21 20 17 15 10 8 12 14 12 10 9 9 8 5 9 11 9 6 4 4 4 4 5 8 11 14 20 22 19 18 16 11 13 19 21 16 15 15 7 12 12 16 13 7 8 14 15 16 18 18 21 24 24 26
24 22 17 8 6 10 11 9 10 12 11 10 12 13 12 16 19 15 11 14 19 20 18 18 18 14 10 16 25 30 28 24 18 17 25 26 23 19 13 12 18 18 13 11 9 8 8 5 6 10 10 5 4 6 8 8 5 5 12 20 25 21 13 9 10 14 21 22 18 15 14 8 7 12 12 11 8 8 14 19 22 23 22 23 24 25 26 29
Wind_Direction
227 226 223 229 243 227 203 204 206 208 210 209 210 207 206 208 206 205 205 206 206 207 206 199 193 192 191 191 190 186 188 192 187 180 179 180 178 176 172 165 166 172 178 186 195 205 214 227 234 237 238 236 224 179 166 172 174 188 217 211 203 194 174 175 186 204 16 77 97 145 193 206 185 179 193 203 203 213 213 210 220 217 217 209 179 170 185 191
224 226 224 227 237 231 202 201 205 206 209 211 212 210 208 207 205 204 204 206 205 205 205 198 192 192 192 190 188 187 191 194 193 193 187 182 178 177 179 174 168 169 174 184 197 201 207 220 227 223 212 199 194 181 170 165 174 205 227 221 212 180 132 122 155 182 286 51 92 135 190 210 208 177 189 207 201 201 215 215 221 226 223 221 213 198 192 195
223 222 223 226 232 236 210 199 202 205 207 209 211 209 207 206 204 203 203 204 204 203 202 197 192 190 190 188 185 186 190 193 203 205 192 182 178 176 180 181 178 176 181 193 200 201 200 201 207 199 184 172 175 174 173 168 174 193 212 235 214 154 112 125 148 162 230 342 33 112 170 203 222 187 190 216 209 200 222 215 209 223 226 224 220 213 202 199
221 220 223 227 230 237 235 211 200 202 206 207 207 203 203 205 203 201 202 203 202 201 201 196 190 188 188 186 184 184 185 193 214 209 197 191 186 180 184 188 190 190 190 199 201 199 199 197 187 176 175 170 163 169 174 169 169 164 209 248 132 141 157 152 166 150 184 307 320 80 163 199 209 198 198 210 218 219 228 224 220 229 229 227 222 216 211 202
217 219 222 226 228 234 243 237 210 201 203 206 207 206 205 205 203 202 201 202 201 199 198 193 189 186 184 183 185 183 179 191 223 211 204 199 194 191 198 203 206 206 200 203 208 200 191 195 180 166 173 168 160 174 173 160 163 154 181 347 89 147 162 115 137 151 167 313 275 241 213 189 174 197 206 209 226 241 228 230 238 241 239 239 229 217 213 204
214 213 219 225 227 232 240 244 228 207 203 203 207 210 210 207 204 202 202 202 199 196 194 189 186 184 181 182 185 183 180 175 221 211 208 201 199 202 207 210 212 213 206 197 197 190 178 181 174 165 170 167 178 180 154 151 169 180 186 150 128 152 134 100 87 253 238 263 244 240 291 232 189 211 215 218 235 249 252 248 250 248 242 242 235 222 217 210
203 203 211 220 224 231 236 240 239 216 206 204 206 208 208 206 204 203 201 200 197 195 191 185 184 181 179 181 182 184 191 207 241 207 204 199 199 198 197 197 198 202 196 183 179 181 178 179 173 167 165 163 188 180 150 148 167 199 173 160 153 137 128 97 49 9 290 252 242 253 277 239 226 240 217 227 242 245 247 249 241 243 236 230 228 225 224 222
196 201 209 217 222 227 231 235 239 227 211 204 206 208 205 203 204 202 200 199 195 193 188 182 182 179 177 177 177 184 201 214 252 198 193 192 193 187 182 180 184 185 179 178 180 179 180 181 174 170 172 159 182 176 159 155 174 204 161 152 166 153 148 81 36 32 10 290 260 250 252 243 239 249 240 249 255 250 247 243 233 230 230 228 226 225 225 226
195 197 204 218 222 224 227 232 238 239 223 205 203 207 209 206 203 200 199 198 192 190 185 180 180 179 179 179 176 187 203 200 193 182 184 188 189 186 183 181 185 184 179 182 185 184 183 183 178 172 171 150 169 171 172 183 201 195 163 150 172 169 177 295 307 12 2 319 274 244 241 247 241 248 254 257 263 258 247 239 234 230 231 232 229 228 227 228
190 183 181 198 213 221 224 228 237 240 237 213 199 202 208 208 204 199 198 196 190 188 183 179 180 180 181 180 178 191 197 189 169 171 182 185 187 188 189 189 191 192 191 190 189 192 189 186 181 167 141 146 165 165 177 195 182 172 172 167 197 218 242 267 242 275 317 314 276 245 261 274 210 229 247 253 273 263 240 235 232 230 234 235 234 233 230 231
180 170 164 176 197 215 220 224 232 235 240 224 199 197 199 202 200 196 197 195 188 185 181 179 180 178 179 180 182 191 188 183 164 157 179 186 187 189 192 193 194 196 197 195 195 197 194 188 180 171 155 154 157 149 180 200 77 142 168 183 236 271 268 256 252 262 273 285 265 246 278 263 170 202 246 261 280 271 237 234 231 229 232 234 235 235 233 232
179 172 169 179 189 203 213 218 226 230 235 223 200 194 192 196 198 194 195 193 186 184 180 179 180 177 177 182 190 190 183 183 172 153 170 186 190 191 193 194 194 197 198 199 200 198 198 192 183 181 158 155 151 142 188 188 117 127 157 188 210 267 261 245 244 248 239 246 219 108 279 245 188 213 243 257 262 249 235 234 231 230 231 232 233 233 233 233
187 183 183 185 186 193 203 213 220 223 225 221 201 189 190 194 197 194 192 191 186 183 181 179 181 178 177 185 194 192 186 185 182 170 161 180 191 193 194 194 196 201 203 206 202 193 196 194 189 184 146 150 152 130 149 143 136 144 155 217 184 220 247 226 220 217 215 233 172 136 268 245 194 223 241 252 251 241 239 237 233 233 233 233 234 234 235 234
198 191 180 178 184 191 197 207 216 216 213 218 203 187 187 189 194 195 190 189 186 183 182 180 180 179 181 188 192 193 191 189 192 189 167 172 186 189 191 194 197 202 204 205 197 188 194 192 188 183 152 151 141 124 125 120 158 159 144 224 206 223 224 151 178 190 203 218 170 174 254 252 228 239 250 254 249 244 240 239 240 238 237 236 234 235 235 236
202 202 193 189 192 194 197 203 214 216 212 222 219 198 181 181 187 192 189 187 185 184 183 181 180 178 180 187 193 194 190 193 198 196 184 175 181 182 183 187 190 193 193 194 192 187 190 187 181 169 141 148 146 136 130 127 169 169 180 208 201 223 202 125 171 192 213 196 169 193 245 252 254 259 260 261 251 242 239 240 242 241 240 239 237 235 235 237
192 197 198 197 199 201 201 204 215 220 221 233 234 215 181 177 183 188 189 185 182 184 180 178 179 177 176 178 189 194 190 193 198 197 196 185 180 176 172 177 179 183 185 188 192 189 188 182 169 153 136 151 159 151 142 144 166 190 222 219 182 211 213 146 159 193 230 189 182 215 246 255 266 237 221 256 262 241 239 244 246 244 242 240 238 236 236 238
181 180 182 182 189 194 193 200 211 217 223 235 235 217 184 173 181 184 185 183 180 180 178 177 178 177 178 171 179 191 192 189 188 192 196 189 182 174 168 172 175 180 181 183 187 183 179 167 157 155 150 167 175 162 163 183 194 191 217 229 192 213 221 194 161 162 199 209 209 219 236 246 254 233 216 254 272 247 241 247 254 253 248 245 243 241 240 241
171 169 174 176 178 179 181 193 203 207 217 226 227 220 196 165 177 180 178 177 171 171 176 176 173 173 193 186 181 188 190 183 176 182 186 182 181 175 170 171 173 174 168 164 170 168 162 155 161 168 169 181 176 178 191 196 197 191 193 203 207 212 221 219 194 145 177 208 222 215 227 241 246 255 259 262 258 253 253 252 256 260 257 254 252 247 245 245
168 164 168 167 163 167 176 189 199 205 211 220 223 218 202 159 168 176 172 167 163 165 174 174 174 180 202 185 182 185 186 179 171 176 177 175 178 178 174 172 168 164 155 151 164 164 153 144 177 188 180 183 183 194 199 168 188 193 187 200 205 201 215 217 179 126 177 207 221 223 232 241 242 248 256 257 251 252 257 258 258 260 261 261 259 255 251 249
168 163 163 160 158 162 168 177 193 203 206 218 221 205 198 163 164 174 169 166 169 174 176 176 177 176 158 170 173 176 176 174 172 172 173 173 175 174 170 166 160 158 159 157 161 165 162 165 193 196 186 183 187 193 176 87 139 179 185 208 213 214 219 200 170 130 169 228 227 227 240 249 246 244 249 254 250 247 252 256 257 256 258 261 261 261 261 259
171 168 163 157 161 166 167 170 180 190 193 205 208 194 203 192 170 157 164 168 176 181 177 175 177 160 144 165 170 169 161 161 171 170 171 171 171 168 162 161 158 163 167 143 132 151 173 195 200 192 184 180 182 175 136 113 149 174 189 205 213 225 229 189 175 133 133 241 236 212 251 257 252 250 254 256 249 240 245 252 255 254 254 258 262 262 264 266
171 171 166 159 166 171 171 171 174 177 173 179 187 187 205 210 175 117 149 164 179 192 178 174 178 167 158 166 172 169 156 141 160 168 169 169 170 168 163 170 167 156 145 125 123 147 185 211 190 170 151 147 153 157 164 165 166 180 188 201 217 213 225 224 190 129 129 243 253 154 270 265 258 255 253 254 249 242 245 251 258 259 253 254 262 265 265 268
170 168 166 165 175 183 178 175 177 173 159 156 168 173 191 207 188 156 132 146 170 187 173 173 175 157 156 163 170 170 159 148 161 170 171 169 171 170 162 169 163 143 146 153 161 163 185 201 163 142 137 143 150 169 177 172 177 197 187 198 219 180 192 237 183 149 130 270 291 307 282 271 263 255 248 246 244 246 249 251 255 257 255 255 261 266 266 266
173 170 168 168 175 184 183 182 180 175 158 147 165 177 180 188 196 185 131 108 142 175 171 172 167 157 159 163 168 169 161 162 169 171 174 170 165 165 162 160 150 146 170 176 175 169 157 140 137 139 162 165 161 170 177 180 191 209 205 208 219 182 190 270 115 143 188 230 258 292 281 269 251 245 247 239 233 241 246 245 248 250 253 258 258 259 261 262
173 172 168 166 172 181 187 186 175 174 164 150 164 184 188 179 187 183 138 64 38 165 174 172 163 160 161 162 168 167 157 162 173 172 174 171 163 158 158 162 158 165 181 174 173 178 145 125 141 146 169 171 164 175 184 189 193 207 219 222 225 194 178 132 129 163 234 225 187 289 267 261 225 236 249 244 227 237 236 233 243 247 249 254 255 254 254 256
172 174 169 165 171 177 181 178 172 172 165 161 157 172 193 193 186 176 122 57 198 170 176 171 166 166 162 162 163 162 155 160 176 173 172 173 170 161 149 161 170 174 173 166 170 186 141 151 154 154 168 171 173 185 184 185 197 211 209 208 210 183 161 158 175 195 241 245 108 31 253 265 287 251 245 241 244 247 240 231 237 246 250 251 253 255 252 250
173 177 176 176 174 172 174 170 171 171 166 176 180 171 187 193 187 175 103 27 198 162 163 166 170 171 167 164 161 159 157 151 161 173 173 172 173 167 158 166 176 167 161 149 173 180 134 156 162 156 161 169 185 192 183 187 200 201 148 162 170 167 164 168 189 213 265 321 262 201 242 275 276 265 244 231 246 251 245 244 238 242 252 252 252 255 253 249
173 178 179 182 176 171 179 178 174 171 170 180 189 186 184 179 178 170 113 224 171 134 152 159 169 170 164 165 164 153 136 147 150 175 175 170 168 170 172 175 165 157 159 159 179 158 127 161 169 159 161 183 193 182 172 183 197 80 105 130 150 153 150 155 190 218 344 318 245 188 160 257 257 245 187 205 239 249 246 247 241 233 241 247 248 249 252 250
171 177 179 182 177 171 176 184 183 180 173 174 181 190 186 169 159 147 158 227 146 100 150 155 163 161 156 162 167 142 137 149 141 162 172 170 166 170 173 172 157 143 157 172 159 138 134 177 171 161 173 190 174 129 162 181 179 106 118 102 103 104 106 126 200 221 274 261 249 191 174 241 268 231 213 186 218 245 247 244 243 235 234 240 242 245 249 247
166 172 177 180 179 174 171 173 184 187 168 167 170 169 164 156 141 139 222 210 117 116 153 152 158 154 153 156 160 145 143 139 131 147 164 166 164 162 131 145 145 138 154 58 78 102 77 155 167 170 190 154 114 78 128 165 135 126 131 114 108 100 94 116 80 358 266 253 243 196 185 220 273 229 214 220 213 240 248 245 246 243 240 242 244 246 248 246
162 166 173 178 177 178 173 165 173 180 167 163 161 153 148 141 130 179 196 145 87 172 162 148 152 153 157 157 150 155 146 128 141 144 150 156 161 157 132 133 128 138 163 121 96 91 93 141 169 195 158 125 111 98 70 105 136 139 142 144 134 117 129 183 164 219 249 241 210 152 180 209 237 223 211 245 235 233 245 246 250 247 244 246 245 242 242 245
160 156 161 173 174 177 176 171 175 178 175 168 161 156 148 127 206 209 171 136 131 183 179 157 154 157 166 164 158 156 140 142 157 153 155 160 164 169 160 163 159 152 177 171 144 119 117 144 150 107 162 157 139 133 108 114 157 159 154 157 149 128 154 208 203 210 240 229 94 42 114 216 243 249 250 255 242 234 239 239 247 254 253 251 247 243 247 262
162 154 153 164 170 177 180 179 178 174 175 173 163 159 158 162 185 195 160 160 129 144 169 174 162 161 167 167 158 151 137 152 167 162 160 161 163 173 179 175 170 168 182 164 137 123 128 330 241 163 174 189 175 158 156 164 172 173 169 170 166 149 174 204 193 219 257 233 118 77 88 248 265 261 240 242 241 242 247 244 247 255 260 264 267 273 280 285
167 162 156 156 162 176 180 182 178 171 170 170 163 158 178 178 166 103 146 183 53 109 144 172 166 164 171 173 160 153 143 159 168 161 157 158 165 176 166 174 181 177 130 153 150 155 158 204 202 179 161 183 187 177 157 148 161 179 179 186 188 166 193 202 188 206 231 84 119 147 211 237 243 24 247 246 255 261 264 261 259 260 262 267 272 277 281 279
171 171 169 161 159 170 178 184 179 171 168 164 158 172 178 175 166 141 161 176 144 135 151 179 171 166 174 174 165 163 148 162 166 159 160 168 173 177 170 180 188 176 145 160 173 174 177 188 189 134 143 169 174 154 132 138 154 182 159 205 231 189 174 157 174 188 112 44 183 184 239 251 259 317 288 263 260 259 257 258 259 259 260 265 269 273 273 269
171 174 176 171 168 166 171 175 169 169 171 163 143 213 188 161 146 168 161 147 158 152 154 180 184 173 173 167 168 171 135 151 163 156 169 176 178 181 176 177 184 180 170 162 149 177 184 177 44 62 128 168 163 142 148 159 156 145 184 202 183 47 68 125 113 55 74 255 221 182 247 269 282 281 262 246 247 250 252 250 242 246 254 259 264 268 266 265
177 178 181 180 181 173 171 173 165 166 170 165 193 209 150 10 158 151 131 136 156 157 155 176 189 174 169 161 169 167 143 143 163 157 164 177 186 186 179 176 183 188 186 168 154 194 167 127 4 150 137 161 154 141 155 200 147 151 186 180 134 40 315 201 172 127 185 247 247 193 243 259 256 256 228 219 238 244 255 257 242 238 248 251 258 263 259 258
178 180 185 187 189 182 175 177 172 167 162 163 224 223 96 89 173 169 353 118 137 152 161 176 181 50 172 163 168 167 155 154 169 162 162 178 192 185 181 179 187 193 190 174 168 172 147 118 43 289 130 118 134 145 158 250 277 211 172 155 151 217 212 190 189 174 186 236 254 225 250 258 232 229 220 199 214 219 231 244 235 224 227 237 252 260 256 255
171 171 185 190 189 185 175 174 176 174 163 169 214 220 197 182 184 202 297 28 115 171 185 179 117 9 200 171 165 171 168 166 168 163 169 184 180 181 184 178 182 191 188 179 182 163 149 139 132 173 114 126 152 188 189 185 181 342 154 161 195 293 197 182 177 191 193 211 244 258 263 243 219 212 216 213 211 211 218 231 236 232 227 235 248 252 250 254
165 157 183 191 188 182 170 168 175 179 178 185 203 209 162 164 189 206 239 309 63 180 197 189 143 138 192 190 176 183 176 166 168 169 174 179 159 169 185 182 174 182 177 153 175 158 148 174 141 124 165 172 181 210 200 177 162 168 177 180 191 178 166 233 183 192 233 199 222 265 261 250 210 185 207 215 219 222 233 247 245 229 227 235 239 241 247 256
156 144 188 182 185 181 163 155 172 197 211 188 196 202 148 168 177 184 211 227 239 333 281 204 165 152 170 180 207 214 185 161 170 180 172 175 175 174 188 186 170 167 166 152 174 172 168 161 139 136 177 188 182 322 311 170 172 181 184 186 187 174 163 192 194 182 297 227 206 267 277 271 194 172 200 215 227 232 239 251 244 209 230 240 239 241 249 250
152 148 173 165 178 179 161 144 180 206 226 201 195 201 191 188 176 168 187 207 221 290 336 315 151 143 191 205 217 219 199 165 172 184 185 185 195 197 181 175 160 159 168 154 151 158 77 111 122 128 168 170 71 27 357 322 201 194 212 200 186 188 193 199 208 172 153 201 62 68 285 288 79 164 194 207 228 237 240 250 251 242 245 251 245 237 237 226
145 131 145 158 179 176 161 149 194 191 233 229 206 216 213 202 160 167 177 193 202 185 228 283 168 155 205 239 219 212 211 187 179 186 192 191 195 165 160 166 159 160 172 147 142 160 123 122 115 98 105 67 48 73 46 18 29 216 230 208 182 194 194 169 27 151 167 187 159 179 257 261 46 58 231 243 257 266 264 256 258 264 261 253 234 221 209 181
141 135 144 163 179 175 166 157 178 190 212 200 201 222 220 222 210 182 170 181 193 182 191 229 195 177 195 189 202 218 209 200 196 195 189 185 180 144 160 170 166 166 186 182 170 178 171 145 135 126 129 131 145 183 185 197 210 217 207 168 175 172 127 98 108 133 220 200 172 203 248 225 105 37 263 261 273 290 274 262 263 271 270 256 226 202 178 160
141 142 155 172 178 180 188 190 172 189 199 186 197 210 205 222 224 210 200 191 194 193 194 210 205 212 203 167 194 230 216 209 206 194 169 132 163 147 166 172 170 175 190 177 154 159 161 167 164 151 156 176 187 193 198 187 185 196 152 147 174 167 147 166 189 182 233 199 171 209 230 120 77 243 240 249 261 275 263 255 256 255 254 252 221 187 168 157
148 154 157 169 179 187 203 203 184 184 190 186 199 205 201 218 226 218 217 205 194 201 215 225 195 213 231 187 183 225 226 229 83 172 163 138 156 206 172 173 176 183 186 165 153 155 134 182 188 188 188 189 185 179 123 112 137 172 171 163 173 175 173 173 167 211 222 168 192 224 225 83 133 198 224 236 227 248 254 245 249 246 240 231 205 182 170 165
157 171 167 168 180 194 205 205 195 194 185 184 183 183 196 209 216 213 216 214 199 196 211 238 193 199 226 197 181 200 214 225 65 182 180 147 101 31 170 175 180 183 182 168 162 158 101 189 194 206 207 203 86 127 123 121 153 174 167 167 172 175 179 179 201 220 197 144 234 231 209 234 225 185 208 230 214 230 247 238 238 233 224 215 201 189 183 181
179 187 184 181 171 179 194 193 197 201 190 187 190 178 189 201 204 198 202 215 214 194 195 217 207 214 227 207 196 195 191 204 231 183 168 140 106 91 158 181 190 181 175 171 174 167 152 194 195 200 202 189 36 154 149 146 171 176 170 176 175 173 182 190 212 222 195 191 240 211 163 221 223 186 201 222 210 216 228 235 233 225 221 216 205 201 200 197
194 209 186 185 182 184 188 188 192 198 195 191 196 194 190 195 201 205 198 202 217 205 195 202 203 210 222 221 219 208 183 183 199 188 174 166 154 139 151 176 214 196 180 173 189 190 187 193 189 189 190 76 37 183 170 158 170 179 182 182 176 179 188 195 215 223 206 215 245 220 166 243 231 191 199 214 221 228 234 245 246 234 228 218 207 211 214 213
196 201 173 180 198 198 189 190 192 198 201 196 198 206 202 196 200 208 204 190 198 195 194 209 213 206 211 219 224 227 208 190 186 183 176 169 165 168 173 173 183 191 187 183 188 200 208 190 172 178 195 184 70 9 202 161 166 182 190 184 177 186 197 206 220 221 206 229 250 244 259 268 231 178 194 210 219 232 242 248 253 241 229 217 210 216 221 223
199 201 191 183 202 195 189 192 191 197 205 201 201 205 205 205 203 203 208 208 209 201 190 204 215 209 207 213 218 228 224 209 200 187 177 178 182 183 183 174 169 171 180 188 186 194 209 187 153 169 194 204 176 134 119 113 130 172 189 188 188 195 202 209 218 209 199 225 237 232 247 260 199 152 181 204 206 215 228 233 239 236 230 225 222 226 233 238
203 205 207 206 203 193 193 195 195 202 208 203 206 207 206 211 205 198 207 213 217 224 216 206 208 207 205 213 218 223 222 221 226 203 185 188 190 185 180 169 170 175 177 178 184 189 189 171 156 179 192 195 162 142 131 113 109 190 207 200 196 196 197 203 219 218 213 218 221 218 228 233 137 142 173 189 189 206 219 223 230 238 243 245 242 240 244 249